Notices

What's New in latest Release from April 7th, 2021:

- Updated Glossary, including Speed of Maximum Gust, and Total Hourly Precipitation

- Updated national and regional climate services offices contacts and prices information

- Addition of station inventory lists for 1981-2010, 1971-2000, and 1961-1990 Normals.

If you haven't already, please take our survey and provide feedback about our website: https://eccc.sondage-survey.ca/f/LanguageSelection.aspx?s=442ca660-fcf1-47c0-95a9-59707d6fd709

Hourly Data Report for March 05, 2004

SHERBROOKE A
QUEBEC

45°26'00.000" N
71°41'00.000" W
241.40 m
7028124
71610
YSC

Download Data

Hourly Data (March 2004)
Hourly Data Report for March 5, 2004
TIME
LST
Temp Definition
°C
Dew Point Definition
°C
Rel Hum Definition
%
Precip. Amount Definition
mm

Wind Dir Definition
10's deg

Wind Spd Definition
km/h
Visibility Definition
km
Stn Press Definition
kPa
Hmdx Definition


Wind Chill Definition


Weather Definition


00:00 0.9 -3.4 73   19 6 4.0 99.35      
01:00 0.8 -3.5 73     0 3.5 99.36      
02:00 0.6 -3.5 74     0 2.9 99.41      
03:00 0.7 -3.5 73     0 2.4 99.40      
04:00 0.4 -3.7 74     0 2.1 99.39      
05:00 0.4 -3.8 73   12 4 2.1 99.37      
06:00 0.5 -3.8 73   9 6 2.7 99.39      
07:00 0.5 -3.7 73   8 6 2.6 99.36      
08:00 0.9 -3.4 73   9 7 4.8 99.25     Haze
09:00 1.3 -3.4 71   10 9 9.7 99.11     Haze
10:00 2.0 -3.2 68   9 7 12.9 99.04     Rain
11:00 2.5 -3.0 67   10 7 16.1 98.93     Rain
12:00 2.3 -2.7 69   11 13 4.8 98.76     Rain,Fog
13:00 1.4 -3.2 71   11 15 6.4 98.55     Rain,Snow,Fog
14:00 1.4 -3.4 70   12 19 4.8 98.34     Rain,Ice Pellets,Fog
15:00 1.5 -3.3 70   12 17 8.0 98.06     Rain,Ice Pellets,Fog
16:00 1.5 -3.1 71   13 13 12.9 97.90     Rain,Ice Pellets
17:00 2.5 -2.3 71   14 13 16.1 97.67     Rain
18:00 2.7 -1.6 73   14 17 9.7 97.60     Rain
19:00 3.4 -1.2 72   13 9 15.0 97.43      
20:00 4.4 0.1 74   16 9 6.4 97.36     Moderate Rain
21:00 4.4 0.4 75   16 7 15.0 97.26     Rain
22:00 5.8 1.3 73   20 11 15.0 97.23      
23:00 5.9 1.2 72   18 13 15.0 97.18      

Notes on Data Quality.

Legend

  • E = Estimated
  • M = Missing
  • NA = Not Available*
  • [empty] = Indicates an unobserved value
Date modified: